Regional Weather Roundup
Issued by NWS

Home | Current Version | Previous Version | Graphics & Text | Print | Product List | Glossary On
Versions: 1 2 3 4 5 6 7 8 9 10 11 12 13 14 15 16 17 18 19 20 21 22 23 24 25 26 27 28 29 30 31 32 33 34 35 36 37 38 39 40 41 42 43 44 45 46 47 48 49 50
000
ASUS43 KIND 041909
RWRIN

WEATHER ROUNDUP FOR INDIANA
NATIONAL WEATHER SERVICE INDIANAPOLIS IN
300 PM EDT SAT JUL 04 2015

NOTE: "FAIR" INDICATES FEW OR NO CLOUDS BELOW 12,000 FEET WITH NO
SIGNIFICANT WEATHER AND/OR OBSTRUCTIONS TO VISIBILITY.

* - STATION DOES NOT REPORT WEATHER SUCH AS PRECIPITATION OR FOG.

+ - STATION NOT QUALITY CONTROLLED BY THE NATIONAL WEATHER SERVICE.
    USE DATA WITH CAUTION...ESPECIALLY DEWPOINT AND RELATIVE
    HUMIDITY OBSERVATIONS.

INZ001>003-010>013-019-020-042000-
NORTHWEST INDIANA

CITY           SKY/WX    TMP DP  RH WIND       PRES   REMARKS
GARY /AIRPORT/ MOSUNNY  N/A N/A N/A NE7       30.01F
KNOX *+        MOSUNNY   77  55  47 W3        30.01S
LA PORTE +     MOSUNNY   79  59  50 W3        30.03S
MICHIGAN CITY+ SUNNY     75  55  50 N7        30.03R
MONTICELLO +   MOSUNNY   76  60  57 CALM      30.02S
RENSSELAER +   SUNNY     79  59  50 SW3       30.02F
VALPARAISO     MOSUNNY   77  58  51 SW5       30.02F

$$

LMZ046-743>745-042000-
SOUTHERN LAKE MICHIGAN

STATION/POSITION TIME  TEMP    WIND        PRES    WAVE
                       AIR SEA DIR/SP/G            HT
                 (UTC) (F)     (DEG/KT/KT) (MB)    (FT)
BURNS HARBOR     1900   72      50/  6/  7 1016.9S
MICHIGAN CITY    1900   71     330/  4/  5   N/A
5NW MICH CITY    1900   68 66   20/  4/  4   N/A     0

$$

INZ004-005-014>016-021>024-042000-
NORTH CENTRAL INDIANA

CITY           SKY/WX    TMP DP  RH WIND       PRES   REMARKS
ELKHART        SUNNY     77  55  47 SW7       30.02S
GOSHEN         SUNNY     76  57  51 CALM      30.02S
LOGANSPORT +   MOSUNNY   77  52  41 CALM      30.03F
PERU/GRISSOM   MOSUNNY   77  60  55 W3        30.02S
ROCHESTER +    SUNNY     81  57  44 NW3       30.03S
SOUTH BEND     SUNNY     78  57  48 SW6       30.02S
WARSAW +         N/A     77  57  50 W6        30.03S

$$

INZ006>009-017-018-025>027-042000-
NORTHEAST INDIANA

CITY           SKY/WX    TMP DP  RH WIND       PRES   REMARKS
ANGOLA *+        N/A     81  73  78 NW5       30.02S
AUBURN +       MOSUNNY   77  54  44 CALM      30.03S
FORT WAYNE     CLOUDY    78  57  48 VRB5      30.02F
HUNTINGTON +   SUNNY     76  56  49 CALM      30.02S

$$

INZ028-029-035-036-043>045-051>053-042000-
WEST CENTRAL INDIANA

CITY           SKY/WX    TMP DP  RH WIND       PRES   REMARKS
CRAWFORDSVL +  SUNNY     75  52  43 NW3       30.03S
GREENCASTLE +  MOSUNNY   77  55  47 W3        30.03S
LAFAYETTE      SUNNY     77  57  50 S5        30.02S
TERRE HAUTE    MOSUNNY   80  61  52 CALM      30.01F

$$

INZ030>032-037>040-046>048-054>057-064-065-042000-
CENTRAL INDIANA

CITY           SKY/WX    TMP DP  RH WIND       PRES   REMARKS
CP ATTERBURY + MOSUNNY   79  61  53 CALM      30.01F
FISHERS *+     SUNNY     77  59  53 CALM      30.02F
FRANKFORT +    SUNNY     78  58  50 CALM      30.04F
GREENWOOD *+   MOSUNNY   77  57  50 W6        30.03S
INDIANAPOLIS   MOSUNNY   77  57  50 CALM      30.00F
-EAGLE CREEK   SUNNY     78  57  48 NW5       30.01F
KOKOMO *+      MOSUNNY   79  57  47 CALM      30.02S
MARION +       MOSUNNY   76  57  51 NW3       30.03S
MT COMFORT *+  SUNNY     79  45  29 CALM      30.03S
SHELBYVILLE    MOSUNNY   79  61  53 CALM      30.01F
ZIONSVILLE +   SUNNY     78  56  47 CALM      30.03F

$$

INZ033-034-041-042-049-050-058-059-042000-
EAST CENTRAL INDIANA

CITY           SKY/WX    TMP DP  RH WIND       PRES   REMARKS
MUNCIE         PTSUNNY   77  58  51 MISG      30.02F

$$

INZ060-061-067>069-081>083-085>088-042000-
SOUTHWEST INDIANA

CITY           SKY/WX    TMP DP  RH WIND       PRES   REMARKS
EVANSVILLE     PTSUNNY   81  65  58 NE5       30.00F
HUNTINGBURG *+ PTSUNNY   81  66  61 N5        30.00S
WASHINGTON +   CLOUDY    79  61  54 CALM      30.00S

$$

INZ062-063-066-070>080-084-089>092-042000-
SOUTH CENTRAL AND SOUTHEAST INDIANA

CITY           SKY/WX    TMP DP  RH WIND       PRES   REMARKS
BLOOMINGTON    SUNNY     80  64  58 N5        30.01F
MADISON *+     MOSUNNY   81  61  50 CALM      30.03S
NORTH VERNON + PTSUNNY   81  61  50 W3        30.02F
SEYMOUR +      MOSUNNY   81  64  57 N3        30.01S

$$



USA.gov is the U.S. government's official web portal to all federal, state and local government web resources and services.